Time,TemperatureF,DewpointF,PressureIn,WindDirection,WindDirectionDegrees,WindSpeedMPH,WindSpeedGustMPH,Humidity,HourlyPrecipIn,Conditions,Clouds,dailyrainin,SoftwareType,DateUTC
2013-11-28 00:00:00,10.0,9.4,19.02,WNW,302,10.7,16.6,97,0.00,,---,0.00,VWS V14.01,2013-11-28 05:00:00,
2013-11-28 00:05:00,10.0,9.4,19.02,West,276,5.8,21.0,97,0.00,,---,0.00,VWS V14.01,2013-11-28 05:05:00,
2013-11-28 00:10:00,10.0,9.6,19.02,WNW,300,10.7,19.7,98,0.00,,---,0.00,VWS V14.01,2013-11-28 05:10:00,
2013-11-28 00:15:00,10.0,9.6,19.02,NW,314,5.8,14.3,98,0.00,,---,0.00,VWS V14.01,2013-11-28 05:15:00,
2013-11-28 00:20:00,10.0,9.6,19.02,NW,316,14.8,22.8,98,0.00,,---,0.00,VWS V14.01,2013-11-28 05:20:00,
2013-11-28 00:25:00,10.0,9.8,19.02,NW,309,8.5,17.9,99,0.00,,---,0.00,VWS V14.01,2013-11-28 05:25:00,
2013-11-28 00:35:00,9.9,9.6,19.02,NW,308,7.6,15.7,99,0.00,,---,0.00,VWS V14.01,2013-11-28 05:35:00,
2013-11-28 00:40:00,9.9,9.9,19.02,NW,321,7.6,15.2,100,0.00,,---,0.00,VWS V14.01,2013-11-28 05:40:00,
2013-11-28 00:45:00,9.7,9.7,19.02,NW,326,2.2,18.8,100,0.00,,---,0.00,VWS V14.01,2013-11-28 05:45:00,
2013-11-28 00:50:00,9.5,9.5,19.02,NW,321,13.4,19.7,100,0.00,,---,0.00,VWS V14.01,2013-11-28 05:50:00,
2013-11-28 00:55:00,9.5,9.3,19.02,West,280,8.5,17.0,99,0.00,,---,0.00,VWS V14.01,2013-11-28 05:55:00,
2013-11-28 01:00:00,9.5,9.1,19.02,NNW,329,13.0,17.9,98,0.00,,---,0.00,VWS V14.01,2013-11-28 06:00:00,
2013-11-28 01:05:00,9.3,9.1,19.02,WNW,294,13.9,18.8,99,0.00,,---,0.00,VWS V14.01,2013-11-28 06:05:00,
2013-11-28 01:10:00,9.3,9.1,19.02,West,276,7.6,15.2,99,0.00,,---,0.00,VWS V14.01,2013-11-28 06:10:00,
2013-11-28 01:15:00,9.3,9.1,19.02,WNW,285,11.2,19.2,99,0.00,,---,0.00,VWS V14.01,2013-11-28 06:15:00,
2013-11-28 01:20:00,9.3,8.9,19.02,NW,308,14.8,21.9,98,0.00,,---,0.00,VWS V14.01,2013-11-28 06:20:00,
2013-11-28 01:25:00,9.3,8.6,19.02,West,277,7.6,24.6,97,0.00,,---,0.00,VWS V14.01,2013-11-28 06:25:00,
2013-11-28 01:30:00,9.3,8.6,19.02,NW,318,8.1,20.6,97,0.00,,---,0.00,VWS V14.01,2013-11-28 06:30:00,
2013-11-28 01:35:00,9.3,8.4,19.02,NW,311,15.7,20.6,96,0.00,,---,0.00,VWS V14.01,2013-11-28 06:35:00,
2013-11-28 01:40:00,9.3,8.6,19.02,NW,318,16.1,21.5,97,0.00,,---,0.00,VWS V14.01,2013-11-28 06:40:00,
2013-11-28 01:45:00,9.1,8.9,19.02,WNW,302,11.6,16.6,99,0.00,,---,0.00,VWS V14.01,2013-11-28 06:45:00,
2013-11-28 01:50:00,9.1,8.9,19.02,WNW,288,12.5,17.0,99,0.00,,---,0.00,VWS V14.01,2013-11-28 06:50:00,
2013-11-28 01:55:00,9.3,9.1,19.02,WNW,297,14.8,21.0,99,0.00,,---,0.00,VWS V14.01,2013-11-28 06:55:00,
2013-11-28 02:00:00,9.1,8.9,19.02,WNW,298,7.6,22.4,99,0.00,,---,0.00,VWS V14.01,2013-11-28 07:00:00,
2013-11-28 02:05:00,9.1,8.7,19.02,WNW,285,10.3,23.3,98,0.00,,---,0.00,VWS V14.01,2013-11-28 07:05:00,
2013-11-28 02:15:00,9.1,8.2,19.02,NW,307,10.3,19.7,96,0.00,,---,0.00,VWS V14.01,2013-11-28 07:15:00,
2013-11-28 02:20:00,9.1,8.2,19.02,NW,304,7.6,17.4,96,0.00,,---,0.00,VWS V14.01,2013-11-28 07:20:00,
2013-11-28 02:30:00,9.0,8.3,19.02,NW,322,10.3,17.9,97,0.00,,---,0.00,VWS V14.01,2013-11-28 07:30:00,
2013-11-28 02:35:00,9.1,8.2,19.02,NW,304,18.8,24.2,96,0.00,,---,0.00,VWS V14.01,2013-11-28 07:35:00,
2013-11-28 02:40:00,9.1,8.0,19.02,WNW,295,9.8,21.0,95,0.00,,---,0.00,VWS V14.01,2013-11-28 07:40:00,
2013-11-28 02:50:00,9.0,8.3,19.02,NW,325,11.6,20.6,97,0.00,,---,0.00,VWS V14.01,2013-11-28 07:50:00,
2013-11-28 02:55:00,9.0,8.3,19.02,WNW,294,20.1,26.4,97,0.00,,---,0.00,VWS V14.01,2013-11-28 07:55:00,
2013-11-28 03:00:00,8.8,8.6,19.02,NW,314,11.6,20.1,99,0.00,,---,0.00,VWS V14.01,2013-11-28 08:00:00,
2013-11-28 03:05:00,8.8,8.8,19.02,NW,314,9.8,18.8,100,0.00,,---,0.00,VWS V14.01,2013-11-28 08:05:00,
2013-11-28 03:10:00,8.8,8.8,19.02,NW,322,8.5,23.7,100,0.00,,---,0.00,VWS V14.01,2013-11-28 08:10:00,
2013-11-28 03:15:00,8.8,8.6,19.02,NNW,328,10.3,19.7,99,0.00,,---,0.00,VWS V14.01,2013-11-28 08:15:00,
2013-11-28 03:20:00,8.8,8.1,19.02,NW,315,13.0,20.6,97,0.00,,---,0.00,VWS V14.01,2013-11-28 08:20:00,
2013-11-28 03:25:00,8.8,8.3,19.02,NW,315,10.7,20.6,98,0.00,,---,0.00,VWS V14.01,2013-11-28 08:25:00,
2013-11-28 03:35:00,8.8,8.1,19.02,WNW,287,17.0,21.0,97,0.00,,---,0.00,VWS V14.01,2013-11-28 08:35:00,
2013-11-28 03:40:00,8.8,6.0,19.02,WNW,294,12.1,18.3,88,0.00,,---,0.00,VWS V14.01,2013-11-28 08:40:00,
2013-11-28 03:45:00,8.8,6.2,19.02,WNW,302,12.1,20.1,89,0.00,,---,0.00,VWS V14.01,2013-11-28 08:45:00,
2013-11-28 03:50:00,8.6,6.3,19.02,NW,309,8.9,16.6,90,0.00,,---,0.00,VWS V14.01,2013-11-28 08:50:00,
2013-11-28 03:55:00,8.6,6.3,19.02,WNW,295,11.6,17.9,90,0.00,,---,0.00,VWS V14.01,2013-11-28 08:55:00,
2013-11-28 04:00:00,8.4,6.6,19.02,WNW,297,14.3,20.1,92,0.00,,---,0.00,VWS V14.01,2013-11-28 09:00:00,
2013-11-28 04:05:00,8.4,6.6,19.02,WNW,290,16.1,21.0,92,0.00,,---,0.00,VWS V14.01,2013-11-28 09:05:00,
2013-11-28 04:10:00,8.4,6.6,19.02,West,280,2.2,20.6,92,0.00,,---,0.00,VWS V14.01,2013-11-28 09:10:00,
2013-11-28 04:15:00,8.4,6.6,19.02,WNW,290,13.4,13.4,92,0.00,,---,0.00,VWS V14.01,2013-11-28 09:15:00,
2013-11-28 04:20:00,8.4,6.8,19.02,NW,309,7.2,19.7,93,0.00,,---,0.00,VWS V14.01,2013-11-28 09:20:00,
2013-11-28 04:25:00,8.2,6.9,19.02,NW,304,15.2,15.2,94,0.00,,---,0.00,VWS V14.01,2013-11-28 09:25:00,
2013-11-28 04:30:00,8.2,6.6,19.02,WNW,288,4.0,17.0,93,0.00,,---,0.00,VWS V14.01,2013-11-28 09:30:00,
2013-11-28 04:35:00,8.2,6.4,19.02,NW,305,13.0,17.4,92,0.00,,---,0.00,VWS V14.01,2013-11-28 09:35:00,
2013-11-28 04:40:00,8.2,6.6,19.02,NW,309,13.0,16.1,93,0.00,,---,0.00,VWS V14.01,2013-11-28 09:40:00,
2013-11-28 04:45:00,8.2,6.6,19.02,NW,311,4.9,16.1,93,0.00,,---,0.00,VWS V14.01,2013-11-28 09:45:00,
2013-11-28 04:50:00,8.2,6.4,19.02,NW,308,11.2,17.0,92,0.00,,---,0.00,VWS V14.01,2013-11-28 09:50:00,
2013-11-28 04:56:00,8.2,6.6,19.02,WNW,297,11.2,14.8,93,0.00,,---,0.00,VWS V14.01,2013-11-28 09:56:00,
2013-11-28 05:01:00,8.2,6.6,19.02,WNW,290,10.7,12.5,93,0.00,,---,0.00,VWS V14.01,2013-11-28 10:01:00,
2013-11-28 05:06:00,8.1,6.5,19.02,NW,316,11.6,15.2,93,0.00,,---,0.00,VWS V14.01,2013-11-28 10:06:00,
2013-11-28 05:11:00,8.1,6.5,19.02,WNW,291,11.6,17.9,93,0.00,,---,0.00,VWS V14.01,2013-11-28 10:11:00,
2013-11-28 05:21:00,7.9,6.3,19.02,NW,308,1.3,11.2,93,0.00,,---,0.00,VWS V14.01,2013-11-28 10:21:00,
2013-11-28 05:26:00,7.9,6.3,19.02,WNW,283,7.2,10.7,93,0.00,,---,0.00,VWS V14.01,2013-11-28 10:26:00,
2013-11-28 05:31:00,8.1,6.7,19.02,WNW,297,5.4,9.8,94,0.00,,---,0.00,VWS V14.01,2013-11-28 10:31:00,
2013-11-28 05:36:00,7.9,6.5,19.02,WNW,302,2.7,13.9,94,0.00,,---,0.00,VWS V14.01,2013-11-28 10:36:00,
2013-11-28 05:46:00,7.7,6.6,19.02,NW,321,7.2,16.6,95,0.00,,---,0.00,VWS V14.01,2013-11-28 10:46:00,
2013-11-28 05:55:00,7.7,6.8,19.02,WNW,298,13.9,17.9,96,0.00,,---,0.00,VWS V14.01,2013-11-28 10:55:00,
2013-11-28 06:00:00,7.7,6.8,19.02,NW,307,12.1,17.4,96,0.00,,---,0.00,VWS V14.01,2013-11-28 11:00:00,
2013-11-28 06:05:00,7.7,6.6,19.02,WNW,298,13.9,15.2,95,0.00,,---,0.00,VWS V14.01,2013-11-28 11:05:00,
2013-11-28 06:10:00,7.5,5.9,19.02,WNW,284,12.5,16.6,93,0.00,,---,0.00,VWS V14.01,2013-11-28 11:10:00,
2013-11-28 06:15:00,7.5,5.9,19.02,West,278,2.2,14.3,93,0.00,,---,0.00,VWS V14.01,2013-11-28 11:15:00,
2013-11-28 06:20:00,7.5,6.2,19.02,West,274,11.2,13.4,94,0.00,,---,0.00,VWS V14.01,2013-11-28 11:20:00,
2013-11-28 06:25:00,7.5,6.2,19.02,WNW,298,0.0,18.8,94,0.00,,---,0.00,VWS V14.01,2013-11-28 11:25:00,
2013-11-28 06:30:00,7.5,6.2,19.02,NW,309,11.2,19.2,94,0.00,,---,0.00,VWS V14.01,2013-11-28 11:30:00,
2013-11-28 06:35:00,7.5,6.2,19.02,WNW,300,11.2,17.4,94,0.00,,---,0.00,VWS V14.01,2013-11-28 11:35:00,
2013-11-28 06:40:00,7.5,6.2,19.02,WNW,287,17.9,17.9,94,0.00,,---,0.00,VWS V14.01,2013-11-28 11:40:00,
2013-11-28 06:45:00,7.3,6.2,19.02,NW,309,4.9,19.2,95,0.00,,---,0.00,VWS V14.01,2013-11-28 11:45:00,
2013-11-28 06:50:00,7.3,6.2,19.02,WNW,295,9.8,19.7,95,0.00,,---,0.00,VWS V14.01,2013-11-28 11:50:00,
2013-11-28 06:56:00,7.2,6.3,19.02,WNW,297,10.7,13.0,96,0.00,,---,0.00,VWS V14.01,2013-11-28 11:56:00,
2013-11-28 07:01:00,7.2,6.3,19.02,WNW,283,8.5,16.6,96,0.00,,---,0.00,VWS V14.01,2013-11-28 12:01:00,
2013-11-28 07:06:00,7.0,5.8,19.02,NNW,329,11.6,15.2,95,0.00,,---,0.00,VWS V14.01,2013-11-28 12:06:00,
2013-11-28 07:11:00,7.0,5.4,19.02,NW,318,6.3,20.6,93,0.00,,---,0.00,VWS V14.01,2013-11-28 12:11:00,
2013-11-28 07:21:00,7.0,5.6,19.02,West,274,8.9,16.1,94,0.00,,---,0.00,VWS V14.01,2013-11-28 12:21:00,
2013-11-28 07:26:00,7.0,5.4,19.02,WNW,302,12.1,13.9,93,0.00,,---,0.00,VWS V14.01,2013-11-28 12:26:00,
2013-11-28 07:35:00,7.0,5.2,19.02,WNW,297,6.3,14.3,92,0.00,,---,0.00,VWS V14.01,2013-11-28 12:35:00,
2013-11-28 07:40:00,7.0,5.2,19.02,NW,325,9.4,15.2,92,0.00,,---,0.00,VWS V14.01,2013-11-28 12:40:00,
2013-11-28 07:45:00,7.0,5.2,19.02,NNW,328,13.0,13.0,92,0.00,,---,0.00,VWS V14.01,2013-11-28 12:45:00,
2013-11-28 07:50:00,7.2,5.3,19.02,NNW,330,8.9,14.8,92,0.00,,---,0.00,VWS V14.01,2013-11-28 12:50:00,
2013-11-28 07:55:00,7.2,5.3,19.02,WNW,283,8.5,16.6,92,0.00,,---,0.00,VWS V14.01,2013-11-28 12:55:00,
2013-11-28 08:00:00,7.0,4.9,19.02,NW,325,12.1,16.1,91,0.00,,---,0.00,VWS V14.01,2013-11-28 13:00:00,
2013-11-28 08:05:00,7.0,4.9,19.02,NW,309,3.1,14.3,91,0.00,,---,0.00,VWS V14.01,2013-11-28 13:05:00,
2013-11-28 08:10:00,7.2,4.8,19.02,WNW,292,9.8,14.3,90,0.00,,---,0.00,VWS V14.01,2013-11-28 13:10:00,
2013-11-28 08:15:00,7.0,4.7,19.02,WNW,292,4.5,11.2,90,0.00,,---,0.00,VWS V14.01,2013-11-28 13:15:00,
2013-11-28 08:21:00,7.2,4.8,19.02,WNW,297,12.1,12.1,90,0.00,,---,0.00,VWS V14.01,2013-11-28 13:21:00,
2013-11-28 08:26:00,7.0,4.4,19.02,NW,307,8.1,14.8,89,0.00,,---,0.00,VWS V14.01,2013-11-28 13:26:00,
2013-11-28 08:31:00,7.0,4.4,19.02,West,280,4.5,14.8,89,0.00,,---,0.00,VWS V14.01,2013-11-28 13:31:00,
2013-11-28 08:36:00,7.2,4.4,19.02,West,267,5.4,16.6,88,0.00,,---,0.00,VWS V14.01,2013-11-28 13:36:00,
2013-11-28 08:41:00,7.2,4.4,19.02,NW,309,8.5,13.9,88,0.00,,---,0.00,VWS V14.01,2013-11-28 13:41:00,
2013-11-28 08:46:00,7.2,4.4,19.02,WNW,288,4.9,13.4,88,0.00,,---,0.00,VWS V14.01,2013-11-28 13:46:00,
2013-11-28 08:55:00,7.7,4.9,19.02,North,350,5.8,13.9,88,0.00,,---,0.00,VWS V14.01,2013-11-28 13:55:00,
2013-11-28 09:00:00,7.7,4.9,19.02,WNW,302,5.8,13.9,88,0.00,,---,0.00,VWS V14.01,2013-11-28 14:00:00,
2013-11-28 09:05:00,7.9,5.1,19.02,WNW,301,4.5,11.2,88,0.00,,---,0.00,VWS V14.01,2013-11-28 14:05:00,
2013-11-28 09:10:00,8.1,5.2,19.02,WNW,301,4.9,7.6,88,0.00,,---,0.00,VWS V14.01,2013-11-28 14:10:00,
2013-11-28 09:15:00,8.1,5.2,19.02,West,267,2.7,11.2,88,0.00,,---,0.00,VWS V14.01,2013-11-28 14:15:00,
2013-11-28 09:20:00,7.9,5.1,19.02,WSW,243,3.1,13.0,88,0.00,,---,0.00,VWS V14.01,2013-11-28 14:20:00,
2013-11-28 09:25:00,8.1,5.2,19.02,West,270,1.3,9.4,88,0.00,,---,0.00,VWS V14.01,2013-11-28 14:25:00,
2013-11-28 09:30:00,8.2,5.4,19.02,West,281,1.3,9.8,88,0.00,,---,0.00,VWS V14.01,2013-11-28 14:30:00,
2013-11-28 09:36:00,8.2,5.2,19.02,WNW,297,5.8,11.2,87,0.00,,---,0.00,VWS V14.01,2013-11-28 14:36:00,
2013-11-28 09:41:00,7.7,4.9,19.02,NW,309,11.6,15.2,88,0.00,,---,0.00,VWS V14.01,2013-11-28 14:41:00,
2013-11-28 09:46:00,7.9,4.8,19.02,West,274,9.8,13.0,87,0.00,,---,0.00,VWS V14.01,2013-11-28 14:46:00,
2013-11-28 09:56:00,7.9,4.8,19.02,NW,305,9.8,15.2,87,0.00,,---,0.00,VWS V14.01,2013-11-28 14:56:00,
2013-11-28 10:01:00,8.1,5.0,19.02,NW,308,6.3,13.9,87,0.00,,---,0.00,VWS V14.01,2013-11-28 15:01:00,
2013-11-28 10:10:00,8.4,5.3,19.02,WSW,256,5.8,12.5,87,0.00,,---,0.00,VWS V14.01,2013-11-28 15:10:00,
2013-11-28 10:15:00,8.8,5.7,19.02,NW,316,8.9,13.0,87,0.00,,---,0.00,VWS V14.01,2013-11-28 15:15:00,
2013-11-28 10:20:00,8.6,5.5,19.02,WNW,287,7.6,15.7,87,0.00,,---,0.00,VWS V14.01,2013-11-28 15:20:00,
2013-11-28 10:26:00,9.0,5.6,19.02,WSW,242,2.7,9.8,86,0.00,,---,0.00,VWS V14.01,2013-11-28 15:26:00,
2013-11-28 10:30:00,9.3,5.7,19.02,West,278,4.5,13.9,85,0.00,,---,0.00,VWS V14.01,2013-11-28 15:30:00,
2013-11-28 10:36:00,10.2,6.4,19.02,WSW,256,4.0,9.4,84,0.00,,---,0.00,VWS V14.01,2013-11-28 15:36:00,
2013-11-28 10:41:00,9.9,5.7,19.02,West,276,8.9,12.1,83,0.00,,---,0.00,VWS V14.01,2013-11-28 15:41:00,
2013-11-28 10:51:00,10.8,5.8,19.02,WNW,284,9.8,15.7,80,0.00,,---,0.00,VWS V14.01,2013-11-28 15:51:00,
2013-11-28 10:56:00,10.6,5.6,19.02,WNW,295,0.9,13.4,80,0.00,,---,0.00,VWS V14.01,2013-11-28 15:56:00,
2013-11-28 11:01:00,10.9,5.7,19.02,WNW,302,6.7,12.5,79,0.00,,---,0.00,VWS V14.01,2013-11-28 16:01:00,
2013-11-28 11:06:00,10.8,5.5,19.02,West,267,4.5,8.9,79,0.00,,---,0.00,VWS V14.01,2013-11-28 16:06:00,
2013-11-28 11:11:00,10.8,5.5,19.02,WSW,254,6.7,16.1,79,0.00,,---,0.00,VWS V14.01,2013-11-28 16:11:00,
2013-11-28 11:21:00,10.4,4.9,19.02,SW,235,13.0,16.6,78,0.00,,---,0.00,VWS V14.01,2013-11-28 16:21:00,
2013-11-28 11:26:00,10.6,5.1,19.02,WNW,297,12.1,17.0,78,0.00,,---,0.00,VWS V14.01,2013-11-28 16:26:00,
2013-11-28 11:31:00,10.9,5.2,19.02,WNW,291,7.2,13.4,77,0.00,,---,0.00,VWS V14.01,2013-11-28 16:31:00,
2013-11-28 11:41:00,11.5,5.7,19.02,NW,309,11.2,12.5,77,0.00,,---,0.00,VWS V14.01,2013-11-28 16:41:00,
2013-11-28 11:46:00,11.7,5.9,19.02,WNW,301,2.7,11.2,77,0.00,,---,0.00,VWS V14.01,2013-11-28 16:46:00,
2013-11-28 11:51:00,12.4,6.3,19.02,WNW,300,10.3,12.1,76,0.00,,---,0.00,VWS V14.01,2013-11-28 16:51:00,
2013-11-28 11:56:00,10.9,5.2,19.02,West,281,11.6,13.4,77,0.00,,---,0.00,VWS V14.01,2013-11-28 16:56:00,
2013-11-28 12:01:00,11.1,5.3,19.02,WNW,294,6.3,17.0,77,0.00,,---,0.00,VWS V14.01,2013-11-28 17:01:00,
2013-11-28 12:06:00,12.2,6.1,19.02,West,277,7.2,13.4,76,0.00,,---,0.00,VWS V14.01,2013-11-28 17:06:00,
2013-11-28 12:11:00,11.1,5.1,19.02,NW,314,11.2,15.2,76,0.00,,---,0.00,VWS V14.01,2013-11-28 17:11:00,
2013-11-28 12:16:00,11.3,5.5,19.02,West,260,5.4,12.1,77,0.00,,---,0.00,VWS V14.01,2013-11-28 17:16:00,
2013-11-28 12:21:00,11.5,5.1,19.02,WNW,302,17.0,17.9,75,0.00,,---,0.00,VWS V14.01,2013-11-28 17:21:00,
2013-11-28 12:26:00,12.0,5.6,19.02,NW,307,10.3,17.0,75,0.00,,---,0.00,VWS V14.01,2013-11-28 17:26:00,
2013-11-28 12:31:00,13.3,6.6,19.02,WSW,253,2.2,14.8,74,0.00,,---,0.00,VWS V14.01,2013-11-28 17:31:00,
2013-11-28 12:36:00,14.2,7.4,19.02,West,264,9.4,12.1,74,0.00,,---,0.00,VWS V14.01,2013-11-28 17:36:00,
2013-11-28 12:41:00,13.8,6.2,19.02,West,263,5.4,11.6,71,0.00,,---,0.00,VWS V14.01,2013-11-28 17:41:00,
2013-11-28 12:46:00,12.6,4.3,19.02,WNW,294,6.7,18.8,69,0.00,,---,0.00,VWS V14.01,2013-11-28 17:46:00,
2013-11-28 13:01:00,12.0,3.8,19.02,WNW,287,10.3,11.6,69,0.00,,---,0.00,VWS V14.01,2013-11-28 18:01:00,
2013-11-28 13:06:00,10.9,3.7,19.02,WNW,284,7.2,13.0,72,0.00,,---,0.00,VWS V14.01,2013-11-28 18:06:00,
2013-11-28 13:16:00,10.6,4.2,19.02,West,266,10.7,12.5,75,0.00,,---,0.00,VWS V14.01,2013-11-28 18:16:00,
2013-11-28 13:21:00,10.9,4.6,19.02,WNW,297,4.0,11.6,75,0.00,,---,0.00,VWS V14.01,2013-11-28 18:21:00,
2013-11-28 13:26:00,11.7,5.0,19.02,WNW,283,4.5,11.6,74,0.00,,---,0.00,VWS V14.01,2013-11-28 18:26:00,
2013-11-28 13:31:00,11.7,4.4,19.02,NW,309,7.2,11.6,72,0.00,,---,0.00,VWS V14.01,2013-11-28 18:31:00,
2013-11-28 13:36:00,11.8,4.6,19.02,West,277,4.9,13.0,72,0.00,,---,0.00,VWS V14.01,2013-11-28 18:36:00,
2013-11-28 13:41:00,12.4,5.1,19.02,WNW,284,3.6,10.3,72,0.00,,---,0.00,VWS V14.01,2013-11-28 18:41:00,
2013-11-28 13:46:00,14.2,6.5,19.02,WNW,287,4.5,8.5,71,0.00,,---,0.00,VWS V14.01,2013-11-28 18:46:00,
2013-11-28 13:51:00,15.1,6.4,19.02,SSW,209,6.7,10.3,68,0.00,,---,0.00,VWS V14.01,2013-11-28 18:51:00,
2013-11-28 13:56:00,14.5,6.2,19.02,WSW,254,7.6,12.1,69,0.00,,---,0.00,VWS V14.01,2013-11-28 18:56:00,
2013-11-28 14:01:00,12.9,4.7,19.02,West,273,6.3,10.3,69,0.00,,---,0.00,VWS V14.01,2013-11-28 19:01:00,
2013-11-28 14:06:00,12.0,4.7,19.02,WSW,250,4.9,13.4,72,0.00,,---,0.00,VWS V14.01,2013-11-28 19:06:00,
2013-11-28 14:11:00,11.3,4.9,19.02,WSW,254,3.6,5.8,75,0.00,,---,0.00,VWS V14.01,2013-11-28 19:11:00,
2013-11-28 14:16:00,10.9,4.9,19.02,WSW,242,7.6,8.1,76,0.00,,---,0.00,VWS V14.01,2013-11-28 19:16:00,
2013-11-28 14:21:00,10.8,5.0,19.02,SW,225,3.6,7.6,77,0.00,,---,0.00,VWS V14.01,2013-11-28 19:21:00,
2013-11-28 14:26:00,10.6,5.1,19.02,SW,226,1.8,7.2,78,0.00,,---,0.00,VWS V14.01,2013-11-28 19:26:00,
2013-11-28 14:31:00,12.2,6.4,19.02,WSW,238,2.7,6.3,77,0.00,,---,0.00,VWS V14.01,2013-11-28 19:31:00,
2013-11-28 14:36:00,12.9,6.5,19.02,NW,314,5.4,6.3,75,0.00,,---,0.00,VWS V14.01,2013-11-28 19:36:00,
2013-11-28 14:41:00,12.6,6.2,19.02,WSW,239,4.9,6.3,75,0.00,,---,0.00,VWS V14.01,2013-11-28 19:41:00,
2013-11-28 14:46:00,12.2,4.9,19.02,WSW,256,7.6,10.7,72,0.00,,---,0.00,VWS V14.01,2013-11-28 19:46:00,
2013-11-28 14:51:00,12.6,5.3,19.02,West,266,0.0,13.0,72,0.00,,---,0.00,VWS V14.01,2013-11-28 19:51:00,
2013-11-28 14:56:00,12.4,4.2,19.02,West,267,2.2,4.9,69,0.00,,---,0.00,VWS V14.01,2013-11-28 19:56:00,
2013-11-28 15:01:00,11.7,4.4,19.02,West,281,10.3,10.3,72,0.00,,---,0.00,VWS V14.01,2013-11-28 20:01:00,
2013-11-28 15:06:00,11.3,3.4,19.02,WNW,291,1.3,10.3,70,0.00,,---,0.00,VWS V14.01,2013-11-28 20:06:00,
2013-11-28 15:11:00,10.9,3.1,19.02,West,260,0.9,7.6,70,0.00,,---,0.00,VWS V14.01,2013-11-28 20:11:00,
2013-11-28 15:16:00,10.9,3.7,19.02,WSW,250,2.7,9.4,72,0.00,,---,0.00,VWS V14.01,2013-11-28 20:16:00,
2013-11-28 15:21:00,10.8,2.9,19.02,WNW,300,5.4,7.6,70,0.00,,---,0.00,VWS V14.01,2013-11-28 20:21:00,
2013-11-28 15:26:00,10.4,2.6,19.02,WSW,243,0.9,5.8,70,0.00,,---,0.00,VWS V14.01,2013-11-28 20:26:00,
2013-11-28 15:31:00,10.2,3.0,19.02,WSW,247,6.3,7.2,72,0.00,,---,0.00,VWS V14.01,2013-11-28 20:31:00,
2013-11-28 15:36:00,10.2,3.0,19.02,WSW,256,3.6,6.3,72,0.00,,---,0.00,VWS V14.01,2013-11-28 20:36:00,
2013-11-28 15:41:00,10.2,3.0,19.02,WSW,250,2.2,5.8,72,0.00,,---,0.00,VWS V14.01,2013-11-28 20:41:00,
2013-11-28 15:46:00,10.0,2.8,19.02,WSW,250,0.0,4.0,72,0.00,,---,0.00,VWS V14.01,2013-11-28 20:46:00,
2013-11-28 15:51:00,9.9,2.7,19.02,WSW,250,0.0,0.9,72,0.00,,---,0.00,VWS V14.01,2013-11-28 20:51:00,
2013-11-28 15:56:00,9.3,2.4,19.02,WSW,250,0.0,3.1,73,0.00,,---,0.00,VWS V14.01,2013-11-28 20:56:00,
2013-11-28 16:01:00,9.5,2.6,19.02,WSW,249,0.0,4.5,73,0.00,,---,0.00,VWS V14.01,2013-11-28 21:01:00,
2013-11-28 16:06:00,9.0,2.1,19.02,WSW,252,0.4,1.3,73,0.00,,---,0.00,VWS V14.01,2013-11-28 21:06:00,
2013-11-28 16:11:00,8.1,1.2,19.02,WSW,252,0.0,0.4,73,0.00,,---,0.00,VWS V14.01,2013-11-28 21:11:00,
2013-11-28 16:16:00,7.5,1.5,19.02,WSW,252,0.0,0.0,76,0.00,,---,0.00,VWS V14.01,2013-11-28 21:16:00,
2013-11-28 16:21:00,6.4,0.5,19.02,WSW,250,0.0,0.0,76,0.00,,---,0.00,VWS V14.01,2013-11-28 21:21:00,
2013-11-28 16:26:00,5.5,0.2,19.02,WSW,250,0.0,0.0,78,0.00,,---,0.00,VWS V14.01,2013-11-28 21:26:00,
2013-11-28 16:31:00,5.0,0.2,19.02,WSW,250,0.0,0.0,80,0.00,,---,0.00,VWS V14.01,2013-11-28 21:31:00,
2013-11-28 16:36:00,4.6,0.1,19.02,WSW,250,0.0,1.8,81,0.00,,---,0.00,VWS V14.01,2013-11-28 21:36:00,
2013-11-28 16:46:00,3.6,0.1,19.02,WSW,250,0.0,0.0,85,0.00,,---,0.00,VWS V14.01,2013-11-28 21:46:00,
2013-11-28 16:51:00,3.4,0.1,19.02,WSW,252,0.9,1.8,86,0.00,,---,0.00,VWS V14.01,2013-11-28 21:51:00,
2013-11-28 16:56:00,3.6,0.6,19.02,WSW,252,2.7,3.6,87,0.00,,---,0.00,VWS V14.01,2013-11-28 21:56:00,
2013-11-28 17:01:00,4.5,1.7,19.02,WSW,250,1.8,3.6,88,0.00,,---,0.00,VWS V14.01,2013-11-28 22:01:00,
2013-11-28 17:06:00,4.8,1.8,19.02,WSW,252,1.8,2.7,87,0.00,,---,0.00,VWS V14.01,2013-11-28 22:06:00,
2013-11-28 17:11:00,5.0,2.0,19.02,WSW,252,2.7,3.6,87,0.00,,---,0.00,VWS V14.01,2013-11-28 22:11:00,
2013-11-28 17:16:00,5.2,2.2,19.02,WSW,252,1.8,3.6,87,0.00,,---,0.00,VWS V14.01,2013-11-28 22:16:00,
2013-11-28 17:21:00,5.2,1.9,19.02,WSW,249,3.1,4.0,86,0.00,,---,0.00,VWS V14.01,2013-11-28 22:21:00,
2013-11-28 17:26:00,5.7,2.5,19.02,WSW,249,3.1,4.0,86,0.00,,---,0.00,VWS V14.01,2013-11-28 22:26:00,
2013-11-28 17:31:00,6.3,2.7,19.02,WSW,249,3.6,4.0,85,0.00,,---,0.00,VWS V14.01,2013-11-28 22:31:00,
2013-11-28 17:36:00,6.6,2.3,19.02,WSW,238,4.5,6.7,82,0.00,,---,0.00,VWS V14.01,2013-11-28 22:36:00,
2013-11-28 17:41:00,6.4,1.9,19.02,WSW,238,4.5,6.7,81,0.00,,---,0.00,VWS V14.01,2013-11-28 22:41:00,
2013-11-28 17:46:00,6.4,1.9,19.02,SW,230,4.5,5.8,81,0.00,,---,0.00,VWS V14.01,2013-11-28 22:46:00,
2013-11-28 17:51:00,6.4,1.6,19.02,SW,230,4.0,5.8,80,0.00,,---,0.00,VWS V14.01,2013-11-28 22:51:00,
2013-11-28 17:56:00,6.8,2.0,19.02,SW,230,5.4,6.3,80,0.00,,---,0.00,VWS V14.01,2013-11-28 22:56:00,
2013-11-28 18:01:00,7.0,1.9,19.02,SW,232,5.4,6.3,79,0.00,,---,0.00,VWS V14.01,2013-11-28 23:01:00,
2013-11-28 18:06:00,7.2,2.0,19.02,SW,232,6.7,7.6,79,0.00,,---,0.00,VWS V14.01,2013-11-28 23:06:00,
2013-11-28 18:11:00,7.7,2.3,19.02,SW,233,3.6,6.7,78,0.00,,---,0.00,VWS V14.01,2013-11-28 23:11:00,
2013-11-28 18:16:00,7.7,2.3,19.02,SW,235,3.1,6.7,78,0.00,,---,0.00,VWS V14.01,2013-11-28 23:16:00,
2013-11-28 18:21:00,7.9,2.2,19.02,SW,235,2.7,6.3,77,0.00,,---,0.00,VWS V14.01,2013-11-28 23:21:00,
2013-11-28 18:31:00,8.4,2.7,19.02,SW,236,4.5,6.7,77,0.00,,---,0.00,VWS V14.01,2013-11-28 23:31:00,
2013-11-28 18:36:00,8.4,2.4,19.02,SW,219,5.8,6.7,76,0.00,,---,0.00,VWS V14.01,2013-11-28 23:36:00,
2013-11-28 18:41:00,8.6,2.6,19.02,SW,228,7.6,7.6,76,0.00,,---,0.00,VWS V14.01,2013-11-28 23:41:00,
2013-11-28 18:51:00,8.8,2.8,19.02,SW,228,5.4,7.2,76,0.00,,---,0.00,VWS V14.01,2013-11-28 23:51:00,
2013-11-28 18:56:00,8.8,2.8,19.02,SW,222,5.8,8.1,76,0.00,,---,0.00,VWS V14.01,2013-11-28 23:56:00,
2013-11-28 19:01:00,9.0,3.0,19.02,SW,225,4.5,7.2,76,0.00,,---,0.00,VWS V14.01,2013-11-29 00:01:00,
2013-11-28 19:06:00,9.0,3.0,19.02,SW,225,6.3,8.5,76,0.00,,---,0.00,VWS V14.01,2013-11-29 00:06:00,
2013-11-28 19:11:00,9.1,3.1,19.02,SW,229,6.7,8.1,76,0.00,,---,0.00,VWS V14.01,2013-11-29 00:11:00,
2013-11-28 19:16:00,9.3,3.3,19.02,SW,229,6.3,8.1,76,0.00,,---,0.00,VWS V14.01,2013-11-29 00:16:00,
2013-11-28 19:21:00,9.3,3.3,19.02,SW,222,6.7,7.6,76,0.00,,---,0.00,VWS V14.01,2013-11-29 00:21:00,
2013-11-28 19:26:00,9.3,3.3,19.02,SW,223,5.8,8.5,76,0.00,,---,0.00,VWS V14.01,2013-11-29 00:26:00,
2013-11-28 19:31:00,9.3,3.3,19.02,SW,218,6.7,8.9,76,0.00,,---,0.00,VWS V14.01,2013-11-29 00:31:00,
2013-11-28 19:36:00,9.5,3.5,19.02,SW,223,6.7,8.9,76,0.00,,---,0.00,VWS V14.01,2013-11-29 00:36:00,
2013-11-28 19:41:00,9.5,3.5,19.02,SW,225,7.6,8.1,76,0.00,,---,0.00,VWS V14.01,2013-11-29 00:41:00,
2013-11-28 19:46:00,9.5,3.5,19.02,SW,226,4.9,8.1,76,0.00,,---,0.00,VWS V14.01,2013-11-29 00:46:00,
2013-11-28 19:51:00,9.5,3.5,19.02,SW,228,5.8,9.4,76,0.00,,---,0.00,VWS V14.01,2013-11-29 00:51:00,
2013-11-28 19:56:00,9.9,3.8,19.02,SW,228,6.7,11.6,76,0.00,,---,0.00,VWS V14.01,2013-11-29 00:56:00,
2013-11-28 20:06:00,10.0,4.0,19.02,SW,229,8.1,9.8,76,0.00,,---,0.00,VWS V14.01,2013-11-29 01:06:00,
2013-11-28 20:11:00,10.2,4.2,19.02,SW,228,6.7,8.9,76,0.00,,---,0.00,VWS V14.01,2013-11-29 01:11:00,
2013-11-28 20:16:00,10.4,4.3,19.02,SW,236,6.3,8.9,76,0.00,,---,0.00,VWS V14.01,2013-11-29 01:16:00,
2013-11-28 20:21:00,10.8,4.4,19.02,SW,233,5.8,8.1,75,0.00,,---,0.00,VWS V14.01,2013-11-29 01:21:00,
2013-11-28 20:26:00,10.8,4.4,19.02,SW,235,6.3,8.9,75,0.00,,---,0.00,VWS V14.01,2013-11-29 01:26:00,
2013-11-28 20:36:00,10.8,4.7,19.02,SW,232,4.9,7.2,76,0.00,,---,0.00,VWS V14.01,2013-11-29 01:36:00,
2013-11-28 20:41:00,10.8,4.7,19.02,WSW,239,6.3,8.1,76,0.00,,---,0.00,VWS V14.01,2013-11-29 01:41:00,
2013-11-28 20:51:00,10.6,4.5,19.02,WSW,243,3.6,6.7,76,0.00,,---,0.00,VWS V14.01,2013-11-29 01:51:00,
2013-11-28 20:56:00,10.6,4.5,19.02,SW,236,5.4,7.2,76,0.00,,---,0.00,VWS V14.01,2013-11-29 01:56:00,
2013-11-28 21:01:00,10.6,4.5,19.02,WSW,254,5.8,6.3,76,0.00,,---,0.00,VWS V14.01,2013-11-29 02:01:00,
2013-11-28 21:11:00,10.4,4.6,19.02,WSW,239,2.7,6.7,77,0.00,,---,0.00,VWS V14.01,2013-11-29 02:11:00,
2013-11-28 21:16:00,10.2,4.5,19.02,WSW,242,7.2,7.2,77,0.00,,---,0.00,VWS V14.01,2013-11-29 02:16:00,
2013-11-28 21:21:00,10.2,4.5,19.02,WSW,253,4.0,7.6,77,0.00,,---,0.00,VWS V14.01,2013-11-29 02:21:00,
2013-11-28 21:26:00,10.2,4.5,19.02,WSW,242,4.9,6.3,77,0.00,,---,0.00,VWS V14.01,2013-11-29 02:26:00,
2013-11-28 21:31:00,10.0,4.6,19.02,WSW,242,4.9,6.7,78,0.00,,---,0.00,VWS V14.01,2013-11-29 02:31:00,
2013-11-28 21:36:00,10.0,4.6,19.02,WSW,243,4.0,6.3,78,0.00,,---,0.00,VWS V14.01,2013-11-29 02:36:00,
2013-11-28 21:41:00,10.0,4.8,19.02,WSW,250,3.6,6.7,79,0.00,,---,0.00,VWS V14.01,2013-11-29 02:41:00,
2013-11-28 21:51:00,10.0,5.1,19.02,SW,233,5.8,8.1,80,0.00,,---,0.00,VWS V14.01,2013-11-29 02:51:00,
2013-11-28 21:56:00,10.0,5.1,19.02,WSW,238,3.6,6.3,80,0.00,,---,0.00,VWS V14.01,2013-11-29 02:56:00,
2013-11-28 22:06:00,9.9,5.5,19.02,WSW,238,4.0,6.3,82,0.00,,---,0.00,VWS V14.01,2013-11-29 03:06:00,
2013-11-28 22:11:00,9.7,5.3,19.02,SW,236,6.3,6.7,82,0.00,,---,0.00,VWS V14.01,2013-11-29 03:11:00,
2013-11-28 22:16:00,9.7,5.6,19.02,SW,233,4.5,6.7,83,0.00,,---,0.00,VWS V14.01,2013-11-29 03:16:00,
2013-11-28 22:21:00,9.5,5.7,19.02,SW,233,0.0,4.5,84,0.00,,---,0.00,VWS V14.01,2013-11-29 03:21:00,
2013-11-28 22:26:00,9.5,5.9,19.02,SW,235,2.2,3.6,85,0.00,,---,0.00,VWS V14.01,2013-11-29 03:26:00,
2013-11-28 22:31:00,9.5,5.9,19.02,SW,233,0.9,2.2,85,0.00,,---,0.00,VWS V14.01,2013-11-29 03:31:00,
2013-11-28 22:36:00,9.5,5.9,19.02,SW,235,0.0,1.3,85,0.00,,---,0.00,VWS V14.01,2013-11-29 03:36:00,
2013-11-28 22:46:00,9.1,5.8,19.02,SW,235,0.0,0.0,86,0.00,,---,0.00,VWS V14.01,2013-11-29 03:46:00,
2013-11-28 22:51:00,9.0,5.9,19.02,SW,235,0.0,0.0,87,0.00,,---,0.00,VWS V14.01,2013-11-29 03:51:00,
2013-11-28 22:56:00,8.8,6.0,19.02,SW,235,0.0,0.0,88,0.00,,---,0.00,VWS V14.01,2013-11-29 03:56:00,
2013-11-28 23:01:00,8.8,6.2,19.02,SW,235,0.0,0.0,89,0.00,,---,0.00,VWS V14.01,2013-11-29 04:01:00,
2013-11-28 23:06:00,8.6,6.3,19.02,SW,235,0.0,0.0,90,0.00,,---,0.00,VWS V14.01,2013-11-29 04:06:00,
2013-11-28 23:11:00,8.6,6.5,19.02,SW,235,0.0,0.0,91,0.00,,---,0.00,VWS V14.01,2013-11-29 04:11:00,
2013-11-28 23:21:00,8.6,6.8,19.02,SW,235,0.0,0.0,92,0.00,,---,0.00,VWS V14.01,2013-11-29 04:21:00,
2013-11-28 23:31:00,8.6,7.0,19.02,SW,233,0.0,0.0,93,0.00,,---,0.00,VWS V14.01,2013-11-29 04:31:00,
2013-11-28 23:36:00,8.4,6.8,19.02,SW,233,0.0,0.0,93,0.00,,---,0.00,VWS V14.01,2013-11-29 04:36:00,
2013-11-28 23:41:00,8.4,7.1,19.02,SW,233,1.3,2.2,94,0.00,,---,0.00,VWS V14.01,2013-11-29 04:41:00,
2013-11-28 23:46:00,8.4,6.8,19.02,SW,232,0.0,1.8,93,0.00,,---,0.00,VWS V14.01,2013-11-29 04:46:00,
2013-11-28 23:51:00,8.2,6.6,19.02,SW,235,0.0,0.9,93,0.00,,---,0.00,VWS V14.01,2013-11-29 04:51:00,
2013-11-28 23:56:00,8.4,7.1,19.02,SW,235,0.0,0.0,94,0.00,,---,0.00,VWS V14.01,2013-11-29 04:56:00,